Location: Bazugues
(43.4465°N, 0.3432°E)
Time: 06:11:04
(UTC+00:00)

CZ-4 R/B - Pass Details

Date: 12 January 2026
Orbit: 547 x 553 km, 97.6° (Epoch: 10 February)

Event Time Altitude Azimuth Distance (km) Brightness Sun altitude
Rises 18:10:41 0° 169° (S) 2,709 7.9 -15.3°
Reaches altitude 10° 18:12:48 10° 171° (S) 1,821 7.0 -15.6°
Maximum altitude 18:16:44 78° 257° (WSW) 570 4.4 -16.3°
Drops below altitude 10° 18:20:43 10° 345° (NNW) 1,841 7.0 -17.0°
Sets 18:22:52 0° 347° (NNW) 2,741 7.9 -17.4°
